This is the latest recevied weather packets stored in our database for station/object OK1TBM-13. If no packets are shown the sender has not sent any weather packets the latest 10 day(s).
| Time | Temp. | Humidity | Pressure | Rain* | Wind** | Luminosity | Snow |
|---|---|---|---|---|---|---|---|
| 1788601802 | 18.89° C | 74% | 1017.3 hPa | 0 mm | - | 198 W/m² | - |
| 1788601501 | 18.89° C | 74% | 1017.3 hPa | 0 mm | - | 125 W/m² | - |
| 1788601202 | 18.89° C | 76% | 1017.3 hPa | 0 mm | - | 223 W/m² | - |
| 1788600900 | 18.33° C | 75% | 1017.3 hPa | 0 mm | - | 792 W/m² | - |
| 1788600600 | 18.33° C | 76% | 1017.3 hPa | 0 mm | - | 81 W/m² | - |
| 1788600301 | 19.44° C | 75% | 1017.3 hPa | 0 mm | - | 126 W/m² | - |
| 1788600001 | 18.89° C | 76% | 1017.3 hPa | 0 mm | - | 239 W/m² | - |
| 1788599701 | 18.89° C | 77% | 1017.3 hPa | 0 mm | - | 196 W/m² | - |
| 1788599401 | 18.33° C | 77% | 1017.3 hPa | 0 mm | - | 247 W/m² | - |
| 1788599101 | 18.33° C | 80% | 1017.3 hPa | 0 mm | - | 184 W/m² | - |
| 1788598801 | 17.78° C | 78% | 1017.3 hPa | 0 mm | - | 200 W/m² | - |
| 1788598501 | 18.33° C | 77% | 1017.3 hPa | 0 mm | - | 217 W/m² | - |
| 1788598201 | 17.78° C | 80% | 1017.3 hPa | 0 mm | - | 704 W/m² | - |
| 1788597902 | 17.78° C | 79% | 1017.3 hPa | 0 mm | - | 309 W/m² | - |
| 1788597301 | 17.78° C | 81% | 1017.3 hPa | 0 mm | - | 502 W/m² | - |
| 1788597005 | 17.22° C | 81% | 1017.3 hPa | 0 mm | - | 500 W/m² | - |
| 1788596701 | 17.22° C | 84% | 1016.9 hPa | 0 mm | - | 181 W/m² | - |
| 1788596101 | 17.22° C | 82% | 1016.9 hPa | 0 mm | - | 528 W/m² | - |
| 1788595805 | 17.22° C | 83% | 1016.9 hPa | 0 mm | - | 238 W/m² | - |
| 1788595501 | 16.67° C | 85% | 1016.9 hPa | 0 mm | - | 234 W/m² | - |
| 1788595201 | 16.67° C | 87% | 1016.9 hPa | 0 mm | - | 236 W/m² | - |
| 1788594900 | 16.11° C | 87% | 1016.9 hPa | 0 mm | - | 152 W/m² | - |
| 1788594605 | 16.11° C | 87% | 1016.9 hPa | 0 mm | - | 110 W/m² | - |
| 1788594301 | 16.11° C | 89% | 1016.9 hPa | 0 mm | - | 154 W/m² | - |
| 1788594007 | 16.11° C | 88% | 1016.9 hPa | 0 mm | - | 173 W/m² | - |
* Rain latest hour (hover to see other rain measurements)
** Current wind speed in m/s (hover to see current wind gust speed)